DON PEDRO RESERVOIR (DNP)

Elevation: 830' · TUOLUMNE R basin · Operator: Turlock Irrigation District

Provisional data, subject to change.
Query executed Friday at 8:49:46   clock

Select a sensor type for a plot of data.
Note: Reservoir Flows are daily averages.

Earlier

Date RES ELE    STORAGE    RES CHG    TOC STO    ABV TOC    OUTFLOW    INFLOW    PPT INC   
 FEET   AF   AF   AF   AF   CFS   CFS   INCHES  
07/02/2014 373.71 998120 -- 2030000 -1003080 2207 285 0.00
07/03/2014 727.19 994320 -- 1998300 -- 2116 199 0.00
07/04/2014 726.77 991280 -- 2030000 -- 1932 402 0.00
07/05/2014 726.32 987500 -- 2030000 -- 1859 -49 0.00
07/06/2014 725.93 984480 -- 2030000 -- 1734 212 0.00
07/07/2014 725.62 982220 -- 2030000 -1004580 1586 446 0.00
07/08/2014 725.10 978460 -- 2030000 -1005440 2027 132 0.00
07/09/2014 724.60 974710 -- 2030000 -1055290 2173 283 0.00
07/10/2014 724.05 970230 -- 2030000 -1007670 2292 31 0.00
07/11/2014 723.54 966500 -- 2030000 -- 2098 219 0.00
07/12/2014 723.15 964270 -- 2030000 -- 1777 652 0.00
07/13/2014 722.75 961300 -- 2030000 -1008200 1801 304 0.00
07/14/2014 722.34 957600 -- 2030000 -1072400 1835 -31 0.00
07/15/2014 722.03 955380 -- 2030000 -1008520 1580 463 0.00
07/16/2014 721.56 952430 -- 2030000 -1077570 1835 348 0.00
07/17/2014 720.95 948020 -- 2030000 -1081980 2155 -69 0.00
07/18/2014 720.44 943620 -- 2030000 -- 2178 -39 0.00
07/19/2014 719.91 939900 -- 2030000 -- 2294 418 0.00
07/20/2014 719.42 936260 -- 2030000 -- 2047 210 0.00
07/21/2014 718.96 933350 -- 2030000 -998250 1936 470 0.00
07/22/2014 718.56 930450 -- 2030000 -1099550 1886 424 0.00
07/23/2014 717.97 926110 -- 2030000 -994790 2335 147 0.00
07/24/2014 717.50 922510 -- 2030000 -1007490 2067 249 0.00
07/25/2014 717.01 918920 -- 2030000 -- 1894 82 0.00
07/26/2014 716.57 916050 -- 2030000 -- 1948 502 0.00
07/27/2014 716.05 912470 -- 2030000 -1067530 1912 109 0.00
07/28/2014 715.71 909620 -- 2030000 -1087080 1541 102 0.00
07/29/2014 715.26 906770 -- 2030000 -1123230 2052 617 0.00
07/30/2014 714.62 901800 -- 2030000 -1128200 2438 -67 0.00
07/31/2014 -- 896853 e -- -- -- -- -- --
08/01/2014 -- -- -- -- -- -- -- --

Later | Latest

Warning! This data is preliminary and subject to revision.

Download Data Now Download Data Now | Show DNP Map | Plot DNP Data | 1 Month DNP Data | Real-Time DNP Data | DNP Info